Orbital Elements at Epoch 2459200.5 (2020-Dec-17.0) TDB
Reference: JPL 33 (heliocentric ecliptic J2000)
Element | Value | Uncertainty (1-sigma) | Units |
e | .1367545566228225 | 8.5156e-09 | |
a | 2.391669260972982 | 8.6014e-09 | au |
q | 2.064597591600188 | 2.4391e-08 | au |
i | 11.176356378649 | 5.5543e-07 | deg |
node | 123.4971944487092 | 1.7556e-06 | deg |
peri | 144.8901478517001 | 7.7477e-06 | deg |
M | 359.6343901194841 | 9.4083e-06 | deg |
tp | 2459201.872036082095 (2020-Dec-18.37203608) | 3.5309e-05 | TDB |
period | 1350.983701143874 3.70 | 7.288e-06 1.995e-08 | d yr |
n | .2664724968148685 | 1.4375e-09 | deg/d |
Q | 2.718740930345775 | 9.7777e-09 | au |
|
| | Orbit Determination Parameters
Additional Information
|